Hourly Data Report for September 06, 2020

LOURDES DE BLANC SABLON A
QUEBEC
Current Station Operator: NAVCAN

51°26'31.000" N
57°11'10.000" W
37.20 m
7040815
71808
YBX

Download Data

Hourly Data (September 2020)
Hourly Data Report for September 6, 2020
TIME Temp Definition
°C
Dew Point Definition
°C
Rel Hum Definition
%
Wind Dir Definition
10's deg

Wind Spd Definition
km/h
Visibility Definition
km
Stn Press Definition
kPa
Hmdx Definition


Wind Chill Definition


Weather Definition


00:00 11.6 10.3 91 28 13 24.1 100.63     LegendNANA
01:00 11.4 10.4 93 26 16 24.1 100.66     LegendNANA
02:00 11.4 10.4 94 25 16 24.1 100.71     Clear
03:00 11.3 10.2 93 25 18 24.1 100.75     LegendNANA
04:00 11.0 10.1 94 25 16 24.1 100.81     LegendNANA
05:00 11.2 9.9 92 26 17 24.1 100.88     Clear
06:00 11.8 10.2 90 26 15 24.1 100.97     LegendNANA
07:00 12.2 10.6 89 26 19 24.1 101.00     LegendNANA
08:00 12.8 10.6 86 25 21 24.1 101.04     Mainly Clear
09:00 13.3 10.7 84 25 21 24.1 101.06     LegendNANA
10:00 13.8 11.0 83 25 17 24.1 101.08     LegendNANA
11:00 14.7 10.7 77 24 26 24.1 101.06     Clear
12:00 15.4 10.8 74 23 32 24.1 101.05     LegendNANA
13:00 16.0 12.0 77 23 24 24.1 101.05     LegendNANA
14:00 14.9 12.7 86 23 25 24.1 101.02     Mostly Cloudy
15:00 15.3 13.2 87 23 26 24.1 101.03     LegendNANA
16:00 14.7 13.1 90 22 27 24.1 101.01     LegendNANA
17:00 13.7 12.6 93 24 23 24.1 101.08     Mostly Cloudy
18:00 13.1 12.0 93 25 7 24.1 101.12     LegendNANA
19:00 13.4 11.2 86 26 11 24.1 101.20     LegendNANA
20:00 12.3 8.1 75 3 9 24.1 101.18     Mostly Cloudy
21:00 11.9 9.8 87 18 8 24.1 101.25     LegendNANA
22:00 11.0 10.1 94 26 5 24.1 101.27     LegendNANA
23:00 10.4 9.7 95 20 4 24.1 101.33     Clear

Notes on Data Quality.

Legend

  • E = Estimated
  • M = Missing
  • NA = Not Available*
  • [empty] = Indicates an unobserved value
Date modified: